Probability
3 4 4 9 19 34 47 52 55 63 75 86 92 91 87 75 52 33 23 19 17 16 10 4 1 0 0 0 0 0 0 0 0 0 0 0 0 0 0 0 0 0 0
7 9 13 22 33 47 58 64 70 78 86 92 95 93 86 70 47 27 16 11 9 7 4 2 0 0 0 0 0 0 0 0 0 0 0 0 0 0 0 0 0 0 0
12 15 23 38 56 71 79 80 81 84 87 90 91 87 73 50 29 14 6 3 1 0 0 0 0 0 0 0 0 0 0 0 0 0 0 0 0 0 0 0 0 0 0
11 14 22 39 60 80 89 88 81 74 70 70 71 64 47 27 11 3 1 0 0 0 0 0 0 0 0 0 0 0 0 0 0 0 0 0 0 0 0 0 0 0 0
4 6 12 24 41 61 77 81 74 62 51 46 41 32 20 10 3 0 0 0 0 0 0 0 0 0 0 0 0 0 0 0 0 0 0 0 0 0 0 0 0 0 0
0 1 4 10 19 34 49 57 56 46 34 25 17 10 4 1 0 0 0 0 0 0 0 0 0 0 0 0 0 0 0 0 0 0 0 0 0 0 0 0 0 0 0
0 0 1 2 6 13 22 29 31 24 16 10 6 3 1 0 0 0 0 0 0 0 0 0 0 0 0 0 0 0 0 0 0 0 0 0 0 0 0 0 0 0 0
0 0 0 0 1 3 7 10 10 7 4 2 1 0 0 0 0 0 0 0 0 0 0 0 0 0 0 0 0 0 0 0 0 0 0 0 0 0 0 0 0 0 0
0 0 0 0 0 1 2 2 2 1 0 0 0 0 0 0 0 0 0 0 0 0 0 0 0 0 0 0 0 0 0 0 0 0 0 0 0 0 0 0 0 0 0
0 0 0 0 0 0 0 0 0 0 0 0 0 0 0 0 0 0 0 0 0 0 0 0 0 0 0 0 0 0 0 0 0 0 0 0 0 0 0 0 0 0 0
0 0 0 0 0 0 0 0 0 0 0 0 0 0 0 0 0 0 0 0 0 0 0 0 0 0 0 0 0 0 0 0 0 0 0 0 0 0 0 0 0 0 0
0 0 0 0 0 0 0 0 0 0 0 0 0 0 0 0 0 0 0 0 0 0 0 0 0 0 0 0 0 0 0 0 0 0 0 0 0 0 0 0 0 0 0
0 0 0 0 0 0 0 0 0 0 0 0 0 0 0 0 0 0 0 0 0 0 0 0 0 0 0 0 0 0 0 0 0 0 0 0 0 0 0 0 0 0 0
0 0 0 0 0 0 0 0 0 0 0 0 0 0 0 0 0 0 0 0 0 0 0 0 0 0 0 0 0 0 0 0 0 0 0 0 0 0 0 0 0 0 0
0 0 0 0 0 0 0 0 0 0 0 0 0 0 0 0 0 0 0 0 0 0 0 0 0 0 0 0 0 0 0 0 0 0 0 0 0 0 0 0 0 0 0
0 0 0 0 0 0 0 0 0 0 0 0 0 0 0 0 0 0 0 0 0 0 0 0 0 0 0 0 0 0 0 0 0 0 0 0 0 0 0 0 0 0 0
0 0 0 0 0 0 0 0 0 0 0 0 0 0 0 0 0 0 0 0 0 0 0 0 0 0 0 0 0 0 0 0 0 0 0 0 0 0 0 0 0 0 0
0 0 0 0 0 0 0 0 0 0 0 0 0 0 0 0 0 0 0 0 0 0 0 0 0 0 0 0 0 0 0 0 0 0 0 0 0 0 0 0 0 0 0
0 0 0 0 0 0 0 0 0 0 0 0 0 0 0 0 0 0 0 0 0 0 0 0 0 0 0 0 0 0 0 0 0 0 0 0 0 0 0 0 0 0 0
0 0 0 0 0 0 0 0 0 0 0 0 0 0 0 0 0 0 0 0 0 0 0 0 0 0 0 0 0 0 0 0 0 0 0 0 0 0 0 0 0 0 0
0 0 0 0 0 0 0 0 0 0 0 0 0 0 0 0 0 0 0 0 0 0 0 0 0 0 0 0 0 0 0 0 0 0 0 0 0 0 0 0 0 0 0
0 0 0 0 0 0 0 0 0 0 0 0 0 0 0 0 0 0 0 0 0 0 0 0 0 0 0 0 0 0 0 0 0 0 0 0 0 0 0 0 0 0 0
0 0 0 0 0 0 0 0 0 0 0 0 0 0 0 0 0 0 0 0 0 0 0 0 0 0 0 0 0 0 0 0 0 0 0 0 0 0 0 0 0 0 0
0 0 0 0 0 0 0 0 0 0 0 0 0 0 0 0 0 0 0 0 0 0 0 0 0 0 0 0 0 0 0 0 0 0 0 0 0 0 0 0 0 0 0
0 0 0 0 0 0 0 0 0 0 0 0 0 0 0 0 0 0 0 0 0 0 0 0 0 0 0 0 0 0 0 0 0 0 0 0 0 0 0 0 0 0 0
0 0 0 0 0 0 0 0 0 0 0 0 0 0 0 0 0 0 0 0 0 0 0 0 0 0 0 0 0 0 0 0 0 0 0 0 0 0 0 0 0 0 0
Wind_Speed
4 4 4 3 3 5 6 7 8 8 7 5 6 5 4 3 3 3 4 4 3 2 2 0 2 2 3 5 5 5 6 5 4 4 6 6 8 9 9 9 8 9 9
4 4 3 2 3 3 4 5 6 6 7 6 5 3 3 2 2 2 3 2 3 3 2 1 2 3 3 5 6 5 4 4 4 4 4 5 4 5 7 7 7 8 6
3 3 3 2 1 1 3 3 4 5 6 5 3 3 2 2 2 1 1 1 3 2 2 2 2 3 3 5 6 7 8 7 4 5 6 5 5 4 3 3 4 5 4
4 3 3 3 2 1 2 3 3 2 2 4 5 6 4 3 3 2 1 0 1 1 1 1 2 3 3 5 6 6 6 8 7 4 6 7 5 4 4 3 2 3 4
5 4 3 3 2 1 1 4 5 4 3 1 3 4 2 2 2 2 2 1 1 1 1 1 2 2 2 3 4 5 5 5 6 5 4 5 5 6 6 6 4 3 2
4 3 3 2 2 2 1 2 5 5 6 6 4 4 5 5 4 3 2 1 1 0 1 2 2 2 2 3 4 4 5 4 5 4 4 3 3 3 5 7 6 4 3
4 4 4 3 2 2 2 2 3 4 5 6 6 5 5 5 5 4 3 2 1 0 2 2 2 2 3 4 4 4 5 5 5 4 2 2 3 3 3 4 3 3 2
5 5 5 4 4 4 4 4 4 4 5 5 5 5 5 4 3 3 3 2 1 0 1 3 3 3 4 4 5 4 4 4 4 3 2 1 1 1 1 1 1 1 2
7 7 6 5 6 6 6 5 5 4 4 5 6 6 5 5 4 3 2 1 1 1 2 3 3 4 4 4 4 3 4 4 3 3 2 2 2 3 2 2 1 1 1
7 7 6 6 6 6 5 5 4 5 4 5 6 5 5 4 4 3 3 2 2 2 3 3 4 4 4 4 3 3 4 4 3 2 3 2 2 2 2 2 2 1 1
8 7 6 5 5 5 4 3 3 2 3 4 5 6 5 4 4 3 3 2 2 3 3 3 4 4 4 4 3 4 4 3 4 4 4 4 4 3 3 2 2 2 1
7 6 6 5 4 3 2 1 1 2 2 2 3 5 5 5 4 4 3 3 4 5 5 5 5 5 5 5 5 5 4 4 5 5 6 6 4 5 4 3 3 2 2
6 4 3 2 1 0 1 1 1 0 0 2 4 5 5 4 4 4 4 5 5 6 6 6 5 5 5 5 6 5 6 7 7 6 6 5 5 5 4 4 4 3 3
5 3 2 0 2 2 2 1 2 1 0 2 4 5 5 4 4 4 5 5 5 6 5 5 5 5 5 6 6 6 7 7 7 6 6 6 5 4 4 4 4 4 4
4 3 3 2 2 2 0 1 2 1 1 1 2 3 3 3 4 4 5 5 5 5 5 5 5 5 5 5 5 6 6 6 6 7 6 6 7 6 4 3 3 4 4
4 4 4 4 4 4 3 3 2 1 1 2 1 2 3 3 4 4 5 6 6 5 5 5 5 6 5 8 10 8 8 7 7 7 7 6 9 9 9 8 7 6 5
6 5 5 5 6 5 5 4 2 0 2 3 3 3 4 4 4 5 6 6 5 4 4 4 4 5 6 10 12 12 8 7 7 7 7 7 8 10 8 8 9 9 9
7 6 5 5 4 4 3 3 2 2 2 3 3 4 4 5 5 6 6 5 4 4 3 3 4 5 6 10 11 10 7 7 7 7 7 7 8 9 8 7 9 9 9
7 6 6 5 4 4 3 3 2 2 3 3 4 4 5 5 5 5 5 4 4 4 4 4 5 6 5 6 7 7 5 6 7 7 7 8 8 12 11 9 9 9 8
6 6 5 4 4 4 3 4 4 3 4 4 4 4 4 5 5 5 4 3 4 6 6 6 6 7 6 7 7 6 5 5 4 5 6 10 9 10 10 7 7 8 6
7 6 6 5 5 4 5 5 5 5 4 4 4 4 4 4 4 4 3 5 6 7 7 8 7 7 8 10 11 8 5 4 4 4 4 5 9 9 9 7 5 5 4
7 7 7 6 5 5 6 5 5 4 4 5 5 5 4 3 4 5 5 5 7 8 7 7 7 5 5 7 9 11 8 5 4 3 3 3 6 7 8 7 7 9 7
8 7 7 6 5 5 6 7 5 5 5 5 5 4 4 4 4 5 6 6 5 6 5 5 5 3 3 4 8 9 9 8 4 2 4 5 7 6 6 9 9 7 6
9 8 8 7 6 6 7 6 5 6 6 6 5 4 4 4 3 4 5 6 6 6 6 5 5 4 2 2 3 3 4 5 4 3 4 6 8 7 6 6 6 6 5
9 8 9 10 9 8 7 7 7 8 7 6 6 5 4 4 4 3 2 4 4 6 7 5 5 5 3 2 4 3 3 2 3 2 3 4 4 5 5 5 5 5 5
10 9 10 10 9 8 8 8 9 9 9 7 6 5 4 4 4 5 5 6 4 7 8 8 6 3 4 6 4 4 3 3 2 3 3 3 3 4 3 3 3 4 4
Wind_Direction
314 346 329 292 239 217 210 206 201 201 189 182 183 184 189 189 195 191 182 174 163 143 141 214 294 290 273 275 278 276 271 260 246 265 274 265 259 259 262 258 252 248 237
342 348 339 318 264 233 219 213 209 203 197 195 185 173 163 160 161 148 141 133 107 78 62 12 322 305 292 287 277 264 264 253 221 235 268 286 289 262 254 253 249 247 234
328 342 341 334 300 229 215 202 203 205 205 192 166 138 120 111 127 142 134 69 69 63 42 354 322 306 291 287 284 273 266 270 254 225 239 259 262 299 298 280 271 259 239
344 345 353 351 355 69 125 132 140 176 206 193 181 173 175 179 183 166 170 51 35 25 11 349 335 317 304 295 292 284 273 273 275 255 233 240 254 261 294 301 297 286 257
351 351 357 354 347 358 111 131 134 147 141 185 191 168 152 151 135 139 165 191 270 297 4 15 6 351 334 325 318 310 295 280 278 270 251 249 247 238 248 277 293 301 281
339 341 345 360 347 340 343 147 156 163 159 159 172 175 167 158 156 169 182 203 227 281 20 20 7 350 343 338 330 318 309 296 284 273 250 240 242 237 237 248 262 277 290
306 310 318 323 314 305 289 246 193 179 174 166 164 171 164 161 169 170 178 177 161 44 4 6 348 340 336 335 333 323 319 310 302 295 283 264 253 244 235 240 256 264 286
267 269 272 279 283 279 272 251 222 204 186 173 159 146 147 151 156 164 165 159 148 348 349 349 340 333 336 338 337 328 328 322 315 324 342 350 334 321 296 276 278 296 301
263 266 268 267 268 272 270 260 236 217 196 173 152 147 158 160 154 157 149 126 80 32 18 10 2 352 347 343 339 336 340 343 358 10 26 36 22 29 21 11 11 341 316
266 268 267 262 260 260 266 267 249 220 194 174 161 158 170 164 152 142 113 82 61 53 39 29 17 3 350 344 343 336 341 357 9 25 49 47 33 32 25 12 356 328 265
272 276 278 272 263 259 254 247 239 223 191 175 165 158 160 152 140 122 96 73 55 48 46 32 20 4 349 343 348 345 350 16 32 34 38 32 23 21 16 16 1 342 306
273 278 282 283 274 262 265 271 240 225 207 165 151 150 147 141 127 106 87 68 64 60 55 48 38 21 7 1 1 358 14 36 42 37 37 30 34 36 22 21 13 349 316
287 289 289 292 294 56 69 5 307 269 166 139 143 148 149 139 126 112 95 85 77 68 59 53 42 24 12 12 20 37 48 51 49 40 34 20 22 26 16 17 11 352 334
280 267 254 192 83 74 57 342 314 331 57 150 158 164 163 151 136 119 105 97 87 78 66 55 43 28 24 30 41 53 56 54 46 36 28 16 10 2 359 6 3 353 353
268 226 181 160 131 114 102 282 286 321 65 121 162 173 163 143 128 116 109 101 91 83 74 62 46 35 35 37 57 60 58 51 41 31 25 25 32 26 20 12 360 0 4
242 213 184 173 174 180 199 223 244 291 79 99 106 130 135 130 121 115 113 106 97 88 77 63 57 49 44 63 72 77 67 55 43 28 14 23 29 21 28 32 35 31 19
228 214 204 197 195 195 195 203 212 184 91 91 94 104 113 108 102 109 112 112 107 99 88 72 71 67 60 82 83 81 77 62 44 31 23 25 18 17 13 18 33 35 33
221 214 205 198 196 193 196 205 201 175 132 114 113 115 114 109 107 110 114 115 112 108 93 77 81 83 79 101 99 91 80 68 50 39 31 31 22 14 8 25 36 35 32
208 204 197 189 186 196 200 195 204 191 165 150 141 136 130 124 120 120 123 123 121 106 88 76 78 85 75 95 106 95 82 70 53 39 35 36 33 15 25 37 34 33 27
191 187 179 171 186 205 187 187 200 192 189 176 158 145 140 137 135 132 124 116 116 110 101 82 70 77 72 70 83 97 90 75 54 36 30 30 29 25 33 39 36 29 5
186 174 168 179 201 195 178 191 196 201 191 153 137 133 135 140 138 127 119 123 118 110 102 92 76 71 75 72 75 83 89 92 71 47 23 11 15 31 37 42 39 11 348
181 170 171 192 204 189 180 191 202 193 153 139 135 131 132 139 136 127 122 125 125 118 113 103 89 71 69 75 75 74 75 80 74 44 1 351 18 40 41 37 30 28 29
187 177 176 185 198 191 184 193 198 162 146 141 142 136 124 115 129 137 137 133 133 131 128 121 115 104 87 82 79 74 65 59 57 13 11 26 37 48 48 39 39 39 40
190 180 172 182 199 198 195 197 175 159 151 153 151 143 134 124 122 136 149 151 153 147 144 142 137 131 116 97 84 73 59 42 32 12 13 38 48 52 46 39 37 41 44
189 181 184 192 200 195 195 188 172 162 159 158 154 149 146 141 129 116 128 158 164 166 160 162 157 150 140 126 105 91 55 24 2 10 40 47 49 52 49 46 40 38 40
187 187 194 199 200 193 194 186 177 170 163 162 161 158 151 144 138 127 96 63 118 150 156 160 155 149 145 131 102 73 40 17 43 83 77 73 71 72 64 56 45 37 33